{"data":{"norad_id":68262,"epoch":"2026-05-24T18:47:37.334400Z","epoch_age_seconds":103853,"freshness":"FRESH","line1":"1 68262U 26055A   26144.78307100 -.00177046  00000+0 -53780-2 0  9996","line2":"2 68262  53.1602 324.9377 0005022  93.1528 267.0049 15.34233868 11592","mean_motion":15.34233868,"eccentricity":0.0005022,"inclination_deg":53.1602,"raan_deg":324.9377,"arg_perigee_deg":93.1528,"mean_anomaly_deg":267.0049,"bstar":-0.005378,"rev_number":1159,"period_min":93.857920232015,"perigee_km":459.76134611106,"apogee_km":466.63278204502,"semimajor_km":6841.334064078,"source":"CELESTRAK","updated_at":"2026-05-25T13:38:21.889365Z"}}